"datetime","# probes","# resolvers","can_ipv6","can_ipv6_prbs","can_tcp","can_tcp_prbs","can_tcp6","can_tcp6_prbs","does_ecs","does_ecs_prbs","does_flagday","does_flagday_prbs","does_rov4","does_rov4_prbs","does_rov6","does_rov6_prbs","does_qnamemin","doesnt_qnamemin","does_qnamemin_prbs","doesnt_qnamemin_prbs","does_nxdomain","doesnt_nxdomain","does_nxdomain_prbs","doesnt_nxdomain_prbs","has_ta_19036","hasnt_ta_19036","has_ta_19036_prbs","hasnt_ta_19036_prbs","has_ta_20326","hasnt_ta_20326","has_ta_20326_prbs","hasnt_ta_20326_prbs","can_rsamd5","cannot_rsamd5","broken_rsamd5","can_rsamd5_prbs","cannot_rsamd5_prbs","broken_rsamd5_prbs","can_dsa","cannot_dsa","broken_dsa","can_dsa_prbs","cannot_dsa_prbs","broken_dsa_prbs","can_rsasha1","cannot_rsasha1","broken_rsasha1","can_rsasha1_prbs","cannot_rsasha1_prbs","broken_rsasha1_prbs","can_dsansec3","cannot_dsansec3","broken_dsansec3","can_dsansec3_prbs","cannot_dsansec3_prbs","broken_dsansec3_prbs","can_rsansec3","cannot_rsansec3","broken_rsansec3","can_rsansec3_prbs","cannot_rsansec3_prbs","broken_rsansec3_prbs","can_rsasha256","cannot_rsasha256","broken_rsasha256","can_rsasha256_prbs","cannot_rsasha256_prbs","broken_rsasha256_prbs","can_rsasha512","cannot_rsasha512","broken_rsasha512","can_rsasha512_prbs","cannot_rsasha512_prbs","broken_rsasha512_prbs","can_eccgost","cannot_eccgost","broken_eccgost","can_eccgost_prbs","cannot_eccgost_prbs","broken_eccgost_prbs","can_ecdsa256","cannot_ecdsa256","broken_ecdsa256","can_ecdsa256_prbs","cannot_ecdsa256_prbs","broken_ecdsa256_prbs","can_ecdsa384","cannot_ecdsa384","broken_ecdsa384","can_ecdsa384_prbs","cannot_ecdsa384_prbs","broken_ecdsa384_prbs","can_ed25519","cannot_ed25519","broken_ed25519","can_ed25519_prbs","cannot_ed25519_prbs","broken_ed25519_prbs","can_ed448","cannot_ed448","broken_ed448","can_ed448_prbs","cannot_ed448_prbs","broken_ed448_prbs","can_gost","cannot_gost","broken_gost","can_gost_prbs","cannot_gost_prbs","broken_gost_prbs","can_sha384","cannot_sha384","broken_sha384","can_sha384_prbs","cannot_sha384_prbs","broken_sha384_prbs","is_internal","is_forwarding","is_external","is_internal_prbs","is_forwarding_prbs","is_external_prbs"
2017-06-20T23:59:59Z,109,160,139,92,160,109,136,90,0,3,0,0,0,0,0,0,3,156,2,106,0,160,0,109,0,0,0,0,0,0,0,0,130,28,2,85,26,5,160,0,0,109,7,1,160,0,0,109,4,1,160,0,0,109,7,1,160,0,0,109,4,1,160,0,0,109,4,1,159,0,0,108,4,1,128,30,2,84,28,2,158,2,0,107,5,1,158,2,0,107,5,1,0,158,2,0,108,2,0,158,2,0,108,2,127,30,2,86,27,2,157,2,0,106,5,1,101,42,17,72,34,15
2017-06-21T23:59:59Z,112,162,140,94,162,112,137,92,2,4,0,0,0,0,0,0,3,159,2,110,0,162,0,112,0,0,0,0,0,0,0,0,128,32,2,85,29,5,161,1,0,111,8,1,161,1,0,111,5,1,162,0,0,112,7,1,162,0,0,112,4,1,162,0,0,112,4,1,162,0,0,112,4,1,127,33,2,85,30,2,159,3,0,109,6,1,159,3,0,109,6,1,0,160,2,0,111,2,0,160,2,0,111,2,127,33,2,87,29,2,159,2,1,109,5,2,104,42,16,75,34,15
2017-06-22T23:59:59Z,115,167,144,96,167,115,140,93,1,5,0,0,0,0,0,0,3,164,2,113,0,167,0,115,0,0,0,0,0,0,0,0,134,30,3,88,28,8,166,1,0,114,9,2,167,0,0,115,4,2,167,0,0,115,8,2,166,1,0,114,5,2,166,1,0,114,5,2,166,1,0,114,5,2,131,34,2,86,33,3,164,3,0,112,6,2,163,4,0,111,7,2,0,165,2,0,114,3,0,165,2,0,114,3,131,34,2,88,31,3,162,4,1,110,7,2,105,45,17,75,38,17
2017-06-23T23:59:59Z,112,163,141,94,163,112,138,92,1,4,0,0,0,0,0,0,2,161,1,111,0,163,1,112,0,0,0,0,0,0,0,0,132,29,2,87,28,4,163,0,0,112,8,0,163,0,0,112,5,0,163,0,0,112,8,1,163,0,0,112,5,1,163,0,0,112,5,1,163,0,0,112,5,1,130,31,2,86,30,2,161,2,0,110,6,1,161,2,0,110,6,1,0,161,2,0,111,2,0,161,2,0,111,2,130,31,2,88,29,2,161,2,0,110,6,1,104,42,17,75,35,15
2017-06-24T23:59:59Z,107,159,139,91,159,107,136,89,0,3,0,0,0,0,0,0,3,156,2,106,0,159,0,107,0,0,0,0,0,0,0,0,128,29,2,83,25,4,159,0,0,107,6,0,159,0,0,107,3,0,159,0,0,107,6,0,159,0,0,107,3,0,159,0,0,107,3,0,159,0,0,107,3,0,127,30,2,83,27,1,158,1,0,106,4,0,158,1,0,106,4,0,0,157,2,0,106,1,0,157,2,0,106,1,127,30,2,85,26,1,158,1,0,106,4,0,99,42,18,70,34,15
2017-06-25T23:59:59Z,108,162,142,92,162,108,139,90,0,4,0,0,0,0,0,0,2,160,1,107,0,162,0,108,0,0,0,0,0,0,0,0,130,29,3,83,26,5,161,1,0,107,8,0,162,0,0,108,4,0,162,0,0,108,8,0,162,0,0,108,4,0,162,0,0,108,4,0,162,0,0,108,4,0,130,30,2,84,29,1,161,1,0,107,5,0,161,1,0,107,5,0,0,160,2,0,107,1,0,160,2,0,107,1,130,30,2,86,27,1,161,1,0,107,5,0,100,44,18,72,34,16
2017-06-26T23:59:59Z,112,166,142,94,166,112,139,92,1,4,0,0,0,0,0,0,2,164,1,111,0,166,1,112,0,0,0,0,0,0,0,0,131,33,2,86,29,5,162,4,0,110,10,2,162,4,0,110,7,2,166,0,0,112,8,1,162,0,4,111,5,3,162,0,4,111,5,3,162,0,4,111,5,3,129,31,6,86,30,5,160,2,4,109,7,4,161,3,2,109,8,2,0,163,3,0,111,3,0,163,3,0,111,3,129,34,3,88,30,3,160,2,4,109,6,4,105,44,17,74,35,14
2017-06-27T23:59:59Z,112,164,144,96,164,112,141,94,1,4,0,0,0,0,0,0,3,161,2,110,0,164,0,112,0,0,0,0,0,0,0,0,133,29,2,87,29,5,164,0,0,112,9,1,164,0,0,112,6,1,164,0,0,112,9,1,164,0,0,112,6,1,164,0,0,112,6,1,164,0,0,112,6,1,132,30,2,87,31,2,163,1,0,111,7,1,163,1,0,111,7,1,0,162,2,0,111,2,0,162,2,0,111,2,132,30,2,89,30,2,163,1,0,111,7,1,101,45,18,74,35,15
2017-06-28T23:59:59Z,111,162,143,96,162,111,139,94,2,4,0,0,0,0,0,0,4,158,3,109,0,162,0,111,0,0,0,0,0,0,0,0,131,29,2,87,28,5,162,0,0,111,9,1,162,0,0,111,6,1,162,0,0,111,9,1,162,0,0,111,6,1,162,0,0,111,6,1,162,0,0,111,6,1,130,30,2,87,30,2,161,1,0,110,7,1,161,1,0,110,7,1,0,160,2,0,110,2,0,160,2,0,110,2,129,30,3,89,29,3,160,1,1,110,7,2,101,44,17,73,35,15
2017-06-29T23:59:59Z,110,160,140,94,160,110,137,92,0,4,0,0,0,0,0,0,4,156,3,108,0,160,0,110,0,0,0,0,0,0,0,0,128,30,2,85,28,6,160,0,0,110,9,1,160,0,0,110,5,1,160,0,0,110,9,1,160,0,0,110,5,0,160,0,0,110,5,0,160,0,0,110,5,0,127,31,2,85,31,1,157,3,0,108,7,0,157,3,0,108,7,0,0,158,2,0,109,1,0,158,2,0,109,1,127,31,2,87,29,1,157,3,0,108,7,0,99,44,17,72,35,15
2017-06-30T23:59:59Z,111,160,139,94,160,111,136,92,0,4,0,0,0,0,0,0,4,156,3,108,0,160,1,111,0,0,0,0,0,0,0,0,129,28,3,86,28,7,160,0,0,111,10,1,160,0,0,111,6,1,160,0,0,111,10,1,160,0,0,111,6,1,160,0,0,111,6,1,160,0,0,111,6,1,128,29,3,86,31,3,159,1,0,110,7,1,159,1,0,110,7,1,0,157,3,0,109,3,0,157,3,0,109,3,128,29,3,88,29,3,159,1,0,110,7,1,100,43,17,73,35,15
2017-07-01T23:59:59Z,109,155,135,93,155,109,132,91,0,4,0,0,0,0,0,0,3,152,2,107,0,155,0,109,0,0,0,0,0,0,0,0,123,30,2,84,29,5,155,0,0,109,10,0,155,0,0,109,6,0,155,0,0,109,10,0,155,0,0,109,6,0,155,0,0,109,6,0,155,0,0,109,6,0,122,31,2,84,32,1,154,1,0,108,7,0,154,1,0,108,7,0,0,153,2,0,108,1,0,153,2,0,108,1,122,31,2,86,30,1,154,1,0,108,7,0,98,41,16,72,34,15
2017-07-02T23:59:59Z,110,160,140,94,160,110,137,92,0,5,0,0,0,0,0,0,4,156,3,108,0,160,0,110,0,0,0,0,0,0,0,0,127,30,3,84,28,6,159,1,0,109,10,0,160,0,0,110,5,0,160,0,0,110,10,0,160,0,0,110,5,0,160,0,0,110,5,0,160,0,0,110,5,0,127,31,2,85,32,1,159,1,0,109,6,0,159,1,0,109,6,0,0,158,2,0,109,1,0,158,2,0,109,1,127,31,2,87,29,1,159,1,0,109,6,0,101,42,17,73,34,16
2017-07-03T23:59:59Z,116,169,145,97,169,116,142,95,2,5,0,0,0,0,0,0,7,162,5,112,0,169,0,116,0,0,0,0,0,0,0,0,133,30,6,88,29,9,168,1,0,115,11,1,169,0,0,116,6,1,169,0,0,116,10,1,169,0,0,116,6,1,169,0,0,116,6,1,169,0,0,116,6,1,132,32,5,88,33,4,167,2,0,114,8,1,167,2,0,114,8,1,0,164,5,0,113,4,0,164,5,0,113,4,132,32,5,90,31,4,167,2,0,114,8,1,108,44,17,77,36,15
2017-07-04T23:59:59Z,113,165,142,95,165,113,139,93,0,4,0,0,0,0,0,0,5,160,4,110,0,165,0,113,0,0,0,0,0,0,0,0,132,30,3,87,30,6,165,0,0,113,11,0,165,0,0,113,7,0,165,0,0,113,11,0,165,0,0,113,7,0,165,0,0,113,7,0,165,0,0,113,7,0,130,32,3,86,33,2,163,2,0,111,8,0,163,2,0,111,8,0,0,162,3,0,111,2,0,162,3,0,111,2,130,32,3,88,31,2,163,2,0,111,8,0,106,43,16,76,34,15
2017-07-05T23:59:59Z,113,164,142,96,164,113,139,94,0,5,0,0,0,0,0,0,3,161,2,111,0,164,0,113,0,0,0,0,0,0,0,0,131,31,2,87,31,6,164,0,0,113,12,0,164,0,0,113,7,0,164,0,0,113,12,0,164,0,0,113,7,0,164,0,0,113,7,0,164,0,0,113,7,0,129,33,2,86,34,1,162,2,0,111,8,0,162,2,0,111,8,0,0,162,2,0,112,1,0,162,2,0,112,1,129,33,2,89,32,1,162,2,0,111,8,0,106,42,16,76,34,16
2017-07-06T23:59:59Z,114,166,142,96,166,114,139,94,0,5,0,0,0,0,0,0,5,161,3,111,0,164,0,113,0,0,0,0,0,0,0,0,131,31,4,87,31,8,166,0,0,114,12,1,166,0,0,114,7,1,166,0,0,114,12,1,166,0,0,114,7,0,166,0,0,114,7,0,166,0,0,114,7,0,129,33,4,86,34,2,164,2,0,112,8,0,164,2,0,112,8,0,0,162,4,0,112,2,0,162,4,0,112,2,129,33,4,89,32,3,164,2,0,112,8,0,105,43,18,77,34,16
2017-07-07T23:59:59Z,113,164,140,95,164,113,137,93,0,5,0,0,0,0,0,0,6,158,4,110,0,164,0,113,0,0,0,0,0,0,0,0,129,31,4,86,31,7,164,0,0,113,12,0,164,0,0,113,7,0,164,0,0,113,12,0,164,0,0,113,7,0,164,0,0,113,7,0,164,0,0,113,7,0,127,33,4,85,34,2,162,2,0,111,8,0,162,2,0,111,8,0,0,160,4,0,111,2,0,160,4,0,111,2,127,33,4,88,32,2,162,2,0,111,8,0,105,42,17,76,34,16
2017-07-08T23:59:59Z,117,167,142,99,167,117,139,97,0,7,0,0,0,0,0,0,5,162,3,114,0,167,0,117,0,0,0,0,0,0,0,0,130,32,5,88,33,9,165,2,0,115,15,0,166,1,0,116,8,0,167,0,0,117,14,0,167,0,0,117,7,0,167,0,0,117,7,0,167,0,0,117,7,0,130,33,4,89,36,2,164,3,0,114,9,0,164,3,0,114,9,0,0,163,4,0,115,2,0,163,4,0,115,2,130,33,4,93,33,2,165,2,0,115,8,0,106,43,18,78,35,19
2017-07-09T23:59:59Z,114,167,144,97,167,114,141,95,0,6,0,0,0,0,0,0,4,163,3,112,0,165,0,113,0,0,0,0,0,0,0,0,132,33,2,87,33,7,167,0,0,114,13,0,167,0,0,114,7,0,167,0,0,114,13,0,167,0,0,114,7,0,167,0,0,114,7,0,167,0,0,114,7,0,130,35,2,86,36,1,165,2,0,112,8,0,165,2,0,112,8,0,0,165,2,0,113,1,0,165,2,0,113,1,130,35,2,90,34,1,165,2,0,112,8,0,106,42,19,76,34,18
2017-07-10T23:59:59Z,113,165,143,96,165,113,140,94,0,5,0,0,0,0,0,0,4,161,3,111,0,165,0,113,0,0,0,0,0,0,0,0,132,31,2,87,31,6,165,0,0,113,12,0,165,0,0,113,7,0,165,0,0,113,12,0,165,0,0,113,7,0,165,0,0,113,7,0,165,0,0,113,7,0,130,33,2,86,34,1,162,3,0,110,9,0,162,3,0,110,9,0,0,163,2,0,112,1,0,163,2,0,112,1,129,34,2,88,33,1,161,4,0,110,9,0,106,42,17,76,34,16
2017-07-11T23:59:59Z,112,165,143,95,165,112,140,93,2,6,0,0,0,0,0,0,3,162,2,110,0,165,0,112,0,0,0,0,0,0,0,0,132,31,2,86,31,7,165,0,0,112,12,1,165,0,0,112,7,1,165,0,0,112,12,1,165,0,0,112,7,1,165,0,0,112,7,1,165,0,0,112,7,1,129,34,2,85,35,2,163,2,0,110,8,1,163,2,0,110,8,1,0,163,2,0,111,2,0,163,2,0,111,2,129,34,2,88,33,2,161,4,0,109,9,1,104,42,19,74,34,17
2017-07-12T23:59:59Z,112,164,142,95,164,112,139,93,0,5,0,0,0,0,0,0,2,162,1,111,0,164,0,112,0,0,0,0,0,0,0,0,132,30,2,86,31,6,164,0,0,112,12,0,164,0,0,112,7,0,164,0,0,112,12,0,164,0,0,112,7,0,164,0,0,112,7,0,164,0,0,112,7,0,130,32,2,86,34,1,161,3,0,109,9,0,161,3,0,109,9,0,0,162,2,0,111,1,0,162,2,0,111,1,129,33,2,88,33,1,161,3,0,109,9,0,105,40,19,75,33,17
2017-07-13T23:59:59Z,114,171,147,96,171,114,144,94,0,5,0,0,0,0,0,0,5,166,3,111,0,169,0,113,0,0,0,0,0,0,0,0,135,32,4,86,32,7,170,1,0,113,13,0,171,0,0,114,7,0,171,0,0,114,12,0,171,0,0,114,7,0,171,0,0,114,7,0,171,0,0,114,7,0,133,34,4,86,35,2,169,2,0,112,8,0,169,2,0,112,8,0,0,167,4,0,112,2,0,167,4,0,112,2,133,34,4,89,33,2,169,2,0,112,8,0,108,43,20,77,33,17
2017-07-14T23:59:59Z,111,165,141,93,165,111,139,92,0,5,0,0,0,0,0,0,5,160,3,108,0,165,0,111,0,0,0,0,0,0,0,0,132,29,4,85,30,7,165,0,0,111,12,0,165,0,0,111,7,0,165,0,0,111,12,0,165,0,0,111,7,0,165,0,0,111,7,0,165,0,0,111,7,0,130,31,4,85,33,2,163,2,0,109,8,0,163,2,0,109,8,0,0,161,4,0,109,2,0,161,4,0,109,2,130,31,4,88,31,2,163,2,0,109,8,0,104,42,19,74,33,17
2017-07-15T23:59:59Z,114,170,147,96,170,114,144,94,0,5,0,0,0,0,0,0,3,167,2,112,0,170,0,114,0,0,0,0,0,0,0,0,136,32,2,87,31,7,170,0,0,114,11,1,170,0,0,114,6,1,170,0,0,114,11,1,170,0,0,114,6,1,170,0,0,114,6,1,170,0,0,114,6,1,133,35,2,86,35,2,167,3,0,111,8,1,167,3,0,111,8,1,0,168,2,0,113,2,0,168,2,0,113,2,133,35,2,89,33,2,167,3,0,111,8,1,109,42,19,76,34,17
2017-07-16T23:59:59Z,112,164,142,95,164,112,139,93,0,5,0,0,0,0,0,0,3,161,2,110,0,164,1,112,0,0,0,0,0,0,0,0,132,30,2,86,31,6,164,0,0,112,12,0,164,0,0,112,7,0,164,0,0,112,12,0,164,0,0,112,7,0,164,0,0,112,7,0,164,0,0,112,7,0,130,32,2,86,34,1,162,2,0,110,8,0,162,2,0,110,8,0,0,162,2,0,111,1,0,162,2,0,111,1,130,32,2,89,32,1,162,2,0,110,8,0,107,41,16,76,32,16
2017-07-17T23:59:59Z,111,167,148,96,167,111,145,94,0,5,0,0,0,0,0,0,1,166,1,110,0,167,0,111,0,0,0,0,0,0,0,0,136,31,0,86,30,5,167,0,0,111,11,0,167,0,0,111,6,0,167,0,0,111,11,0,167,0,0,111,6,0,167,0,0,111,6,0,167,0,0,111,6,0,134,33,0,86,33,0,165,2,0,109,7,0,165,2,0,109,7,0,0,167,0,0,111,0,0,167,0,0,111,0,134,33,0,89,31,0,165,2,0,109,7,0,103,44,20,73,34,17
2017-07-18T23:59:59Z,113,168,149,98,168,113,146,96,0,5,0,0,0,0,0,0,2,166,2,112,0,168,0,113,0,0,0,0,0,0,0,0,137,31,0,88,31,5,167,1,0,112,13,0,167,1,0,112,8,0,168,0,0,113,12,0,168,0,0,113,7,0,168,0,0,113,7,0,168,0,0,113,7,0,135,33,0,88,34,0,165,3,0,110,9,0,165,3,0,110,9,0,0,168,0,0,113,0,0,168,0,0,113,0,135,33,0,91,32,0,166,2,0,111,8,0,106,43,19,75,34,17
2017-07-19T23:59:59Z,115,171,147,97,171,115,144,95,0,4,0,0,0,0,0,0,5,166,3,112,0,171,0,115,0,0,0,0,0,0,0,0,136,31,4,88,31,7,170,1,0,114,12,1,170,1,0,114,8,1,171,0,0,115,11,1,171,0,0,115,7,1,171,0,0,115,7,1,171,0,0,115,7,1,134,33,4,88,34,3,167,4,0,111,10,1,167,4,0,111,10,1,0,167,4,0,113,3,0,167,4,0,113,3,134,33,4,90,32,3,168,3,0,112,9,1,107,44,20,76,35,16
2017-07-20T23:59:59Z,116,173,150,99,173,116,147,97,0,5,0,0,0,0,0,0,5,168,3,113,0,173,0,116,0,0,0,0,0,0,0,0,139,29,5,89,30,7,171,2,0,114,13,0,172,1,0,115,8,0,173,0,0,116,12,0,173,0,0,116,7,0,172,1,0,115,8,0,172,1,0,115,8,0,139,30,4,91,33,2,170,3,0,113,9,0,170,3,0,113,9,0,0,169,4,0,114,2,0,169,4,0,114,2,139,30,4,93,30,2,171,2,0,114,8,0,109,45,19,77,35,17
2017-07-21T23:59:59Z,111,168,148,96,168,111,145,94,0,4,0,0,0,0,0,0,1,167,1,110,0,168,0,111,0,0,0,0,0,0,0,0,139,29,0,87,29,4,167,1,0,110,11,0,167,1,0,110,7,0,168,0,0,111,10,0,168,0,0,111,6,0,167,1,0,110,7,0,167,1,0,110,7,0,138,30,0,88,31,0,165,3,0,108,8,0,165,3,0,108,8,0,0,168,0,0,111,0,0,168,0,0,111,0,138,30,0,90,29,0,165,3,0,108,8,0,102,44,22,72,35,16
2017-07-22T23:59:59Z,114,169,146,97,168,114,143,95,1,5,0,0,0,0,0,0,4,165,3,112,0,169,0,114,0,0,0,0,0,0,0,0,136,31,2,87,31,5,168,1,0,113,11,0,168,1,0,113,7,0,169,0,0,114,10,0,169,0,0,114,6,0,169,0,0,114,6,0,169,0,0,114,6,0,135,31,3,88,33,2,167,1,1,112,7,1,167,1,1,112,7,1,0,166,3,0,113,2,0,166,3,0,113,2,135,31,3,90,31,2,167,1,1,112,7,1,105,45,19,75,35,16
2017-07-23T23:59:59Z,116,172,148,98,171,116,145,96,0,4,0,0,0,0,0,0,3,169,2,114,0,172,0,116,0,0,0,0,0,0,0,0,140,30,2,90,30,6,171,1,0,115,11,1,171,1,0,115,7,1,172,0,0,116,10,1,172,0,0,116,6,1,172,0,0,116,6,1,171,1,0,115,7,1,138,31,3,90,33,3,168,3,1,112,9,2,168,3,1,112,9,2,0,169,3,0,115,3,0,169,3,0,115,3,138,31,3,92,31,3,169,2,1,113,8,2,106,47,19,75,37,16
2017-07-24T23:59:59Z,115,172,149,98,172,115,146,96,0,4,0,0,0,0,0,0,3,169,2,113,0,171,0,114,0,0,0,0,0,0,0,0,139,31,2,88,31,5,171,1,0,114,11,0,171,1,0,114,7,0,172,0,0,115,10,0,172,0,0,115,6,0,172,0,0,115,6,0,172,0,0,115,6,0,138,32,2,89,33,1,169,3,0,112,8,0,169,3,0,112,8,0,0,170,2,0,114,1,0,170,2,0,114,1,138,32,2,91,31,1,169,3,0,112,8,0,107,45,20,76,35,16
2017-07-25T23:59:59Z,114,170,147,97,170,114,144,95,3,6,0,0,0,0,0,0,5,165,3,112,0,170,0,114,0,0,0,0,0,0,0,0,135,31,4,87,31,7,169,1,0,113,12,1,170,0,0,114,7,1,170,0,0,114,11,1,170,0,0,114,7,1,169,1,0,113,8,1,169,1,0,113,8,1,134,33,3,88,34,2,167,3,0,111,9,1,167,3,0,111,9,1,0,167,3,0,113,2,0,167,3,0,113,2,134,33,3,90,32,2,168,2,0,112,8,1,105,45,20,75,35,16
2017-07-26T23:59:59Z,114,170,146,96,170,114,143,94,0,4,0,0,0,0,0,0,5,165,3,111,0,170,0,114,0,0,0,0,0,0,0,0,135,31,4,87,31,6,170,0,0,114,11,0,170,0,0,114,7,0,170,0,0,114,11,0,170,0,0,114,7,0,170,0,0,114,7,0,170,0,0,114,7,0,133,33,4,87,34,2,168,2,0,112,8,0,168,2,0,112,8,0,0,166,4,0,112,2,0,166,4,0,112,2,133,33,4,89,32,2,168,2,0,112,8,0,106,45,19,75,35,16
2017-07-27T23:59:59Z,114,168,144,96,168,114,141,94,0,5,0,0,0,0,0,0,5,163,3,111,0,168,0,114,0,0,0,0,0,0,0,0,133,30,5,86,30,7,167,1,0,113,11,0,168,0,0,114,6,0,168,0,0,114,11,0,168,0,0,114,6,0,168,0,0,114,6,0,168,0,0,114,6,0,132,32,4,87,34,2,166,2,0,112,7,0,166,2,0,112,7,0,0,164,4,0,112,2,0,164,4,0,112,2,132,32,4,89,31,2,166,2,0,112,7,0,104,45,19,75,35,17
2017-07-28T23:59:59Z,114,170,148,97,170,114,145,95,0,4,0,0,0,0,0,0,4,166,3,112,0,168,0,113,0,0,0,0,0,0,0,0,137,31,2,88,31,5,170,0,0,114,11,0,170,0,0,114,7,0,170,0,0,114,11,0,170,0,0,114,7,0,170,0,0,114,7,0,170,0,0,114,7,0,135,33,2,88,34,1,168,2,0,112,8,0,168,2,0,112,8,0,0,168,2,0,113,1,0,168,2,0,113,1,134,34,2,89,33,1,166,4,0,111,9,0,104,46,20,75,35,16
2017-07-29T23:59:59Z,114,169,149,99,169,114,146,97,0,5,0,0,0,0,0,0,3,166,2,112,0,169,0,114,0,0,0,0,0,0,0,0,138,29,2,90,29,6,169,0,0,114,11,0,169,0,0,114,6,0,169,0,0,114,11,0,169,0,0,114,6,0,169,0,0,114,6,0,169,0,0,114,6,0,134,33,2,88,33,1,166,3,0,111,8,0,166,3,0,111,8,0,0,167,2,0,113,1,0,167,2,0,113,1,134,33,2,91,31,1,167,2,0,112,7,0,106,44,19,76,34,17
2017-07-30T23:59:59Z,115,170,148,98,170,115,145,96,1,6,0,0,0,0,0,0,4,166,3,113,0,169,0,114,0,0,0,0,0,0,0,0,138,30,2,89,31,7,170,0,0,115,12,1,170,0,0,115,7,1,170,0,0,115,12,1,170,0,0,115,7,1,170,0,0,115,7,1,170,0,0,115,7,1,135,33,2,88,35,2,167,3,0,112,9,1,167,3,0,112,9,1,0,168,2,0,114,2,0,168,2,0,114,2,135,33,2,91,33,2,167,3,0,112,9,1,104,46,20,75,36,17
2017-07-31T23:59:59Z,115,173,152,99,173,115,149,97,0,5,0,0,0,0,0,0,3,170,2,113,0,173,0,115,0,0,0,0,0,0,0,0,140,31,2,90,29,6,173,0,0,115,11,0,173,0,0,115,6,0,173,0,0,115,11,0,173,0,0,115,6,0,173,0,0,115,6,0,173,0,0,115,6,0,138,33,2,90,32,1,172,1,0,114,6,0,172,1,0,114,6,0,0,171,2,0,114,1,0,171,2,0,114,1,138,33,2,93,30,1,172,1,0,114,6,0,108,45,20,76,35,17
2017-08-01T23:59:59Z,112,169,146,95,168,112,143,93,0,5,0,0,0,0,0,0,5,164,3,109,0,169,0,112,0,0,0,0,0,0,0,0,137,28,4,87,28,7,169,0,0,112,11,0,169,0,0,112,6,0,169,0,0,112,11,0,169,0,0,112,6,0,169,0,0,112,6,0,169,0,0,112,6,0,135,30,4,87,31,2,168,1,0,111,6,0,168,1,0,111,6,0,0,165,4,0,110,2,0,165,4,0,110,2,135,30,4,90,29,2,168,1,0,111,6,0,106,45,18,74,34,16
2017-08-02T23:59:59Z,116,176,153,99,176,116,150,97,0,5,0,0,0,0,0,0,6,170,4,113,0,174,0,115,0,0,0,0,0,0,0,0,141,31,4,89,31,7,175,1,0,115,13,0,175,1,0,115,8,0,176,0,0,116,12,0,176,0,0,116,7,0,175,1,0,115,8,0,175,1,0,115,8,0,140,32,4,90,33,2,174,2,0,114,8,0,174,2,0,114,8,0,0,172,4,0,114,2,0,172,4,0,114,2,140,32,4,93,31,2,175,1,0,115,7,0,110,46,20,77,35,17
2017-08-03T23:59:59Z,115,173,154,99,173,115,151,97,0,4,0,0,0,0,0,0,3,170,2,113,0,173,0,115,0,0,0,0,0,0,0,0,143,28,2,91,29,6,172,1,0,114,12,1,172,1,0,114,8,1,173,0,0,115,11,1,173,0,0,115,7,1,172,1,0,114,8,1,172,1,0,114,8,1,141,30,2,91,32,2,170,3,0,112,9,1,170,3,0,112,9,1,0,171,2,0,114,2,0,171,2,0,114,2,141,30,2,93,30,2,171,2,0,113,8,1,106,47,20,75,36,16
2017-08-04T23:59:59Z,112,168,152,98,168,112,149,96,0,5,0,0,0,0,0,0,1,167,1,111,0,168,0,112,0,0,0,0,0,0,0,0,143,25,0,91,27,5,167,1,0,111,13,0,168,0,0,112,7,0,168,0,0,112,12,0,168,0,0,112,7,0,168,0,0,112,7,0,168,0,0,112,7,0,141,27,0,91,31,0,167,1,0,111,7,0,167,1,0,111,7,0,0,168,0,0,112,0,0,168,0,0,112,0,141,27,0,93,28,0,167,1,0,111,7,0,102,47,19,73,35,17
2017-08-05T23:59:59Z,112,168,151,97,168,112,148,95,0,4,0,0,0,0,0,0,1,167,1,111,0,168,0,112,0,0,0,0,0,0,0,0,142,26,0,90,27,5,167,1,0,111,11,1,167,1,0,111,7,1,168,0,0,112,10,1,168,0,0,112,6,1,167,1,0,111,7,1,167,1,0,111,7,1,140,28,0,90,30,1,165,3,0,109,8,1,164,3,1,109,8,2,0,167,1,0,112,2,0,167,1,0,112,2,140,28,0,92,28,1,166,2,0,110,7,1,102,47,19,72,36,16
2017-08-06T23:59:58Z,115,175,157,100,175,115,154,98,0,4,0,0,0,0,0,0,3,172,2,113,0,175,0,115,0,0,0,0,0,0,0,0,145,28,2,91,29,5,175,0,0,115,11,0,175,0,0,115,7,0,175,0,0,115,11,0,175,0,0,115,7,0,175,0,0,115,7,0,175,0,0,115,7,0,143,30,2,91,32,1,173,2,0,113,8,0,173,2,0,113,8,0,0,173,2,0,114,1,0,173,2,0,114,1,143,30,2,93,30,1,173,2,0,113,8,0,109,46,20,76,35,16
2017-08-07T23:59:59Z,118,177,158,102,177,118,155,100,0,4,0,0,0,0,0,0,3,174,2,116,0,175,0,117,0,0,0,0,0,0,0,0,145,30,2,92,31,5,175,2,0,116,13,0,175,2,0,116,9,0,177,0,0,118,11,0,176,0,1,117,7,1,175,1,1,116,8,1,175,1,1,116,8,1,144,30,3,93,32,2,173,3,1,114,9,1,173,3,1,114,9,1,0,174,3,0,116,2,0,174,3,0,116,2,143,32,2,94,32,1,174,3,0,115,9,0,111,46,20,79,35,17
2017-08-08T23:59:59Z,118,179,159,102,179,118,156,100,0,4,0,0,0,0,0,0,5,174,3,115,0,179,0,118,0,0,0,0,0,0,0,0,146,29,4,92,30,6,178,1,0,117,12,0,178,1,0,117,8,0,179,0,0,118,11,0,178,1,0,117,8,0,179,0,0,118,7,0,179,0,0,118,7,0,144,31,4,92,33,2,176,3,0,115,9,0,176,3,0,115,9,0,0,175,4,0,116,2,0,175,4,0,116,2,144,31,4,94,31,2,176,3,0,115,9,0,113,47,19,79,35,16
2017-08-09T23:59:59Z,115,175,155,99,175,115,152,97,0,4,0,0,0,0,0,0,5,170,3,112,0,175,0,115,0,0,0,0,0,0,0,0,144,27,4,91,27,6,175,0,0,115,10,0,175,0,0,115,6,0,175,0,0,115,10,0,175,0,0,115,6,0,174,1,0,114,7,0,175,0,0,115,6,0,142,29,4,91,30,2,172,3,0,112,8,0,172,3,0,112,8,0,0,171,4,0,113,2,0,171,4,0,113,2,142,29,4,93,28,2,172,3,0,112,8,0,111,44,20,77,34,16
2017-08-10T23:59:59Z,116,176,156,99,176,116,153,97,0,4,0,0,0,0,0,0,3,173,2,114,0,176,0,116,0,0,0,0,0,0,0,0,144,30,2,91,29,6,175,1,0,115,11,1,175,1,0,115,7,1,176,0,0,116,10,1,175,0,1,115,6,2,175,0,1,115,6,2,175,0,1,115,6,2,141,32,3,90,32,3,172,3,1,112,8,2,172,4,0,112,9,1,0,174,2,0,115,2,0,174,2,0,115,2,141,33,2,92,31,2,172,4,0,112,9,1,111,45,20,77,35,17
2017-08-11T23:59:59Z,115,173,154,100,173,115,151,98,0,5,0,0,0,0,0,0,3,170,2,113,0,172,1,114,0,0,0,0,0,0,0,0,142,29,2,90,29,6,172,1,0,114,12,0,172,1,0,114,8,0,173,0,0,115,11,0,173,0,0,115,7,0,173,0,0,115,7,0,173,0,0,115,7,0,141,30,2,91,31,1,170,3,0,112,9,0,170,3,0,112,9,0,0,171,2,0,114,1,0,171,2,0,114,1,141,30,2,94,29,1,170,2,1,112,8,1,109,45,19,76,35,17
2017-08-12T23:59:59Z,111,170,152,96,170,111,150,95,0,4,0,0,0,0,0,0,3,167,2,109,0,170,0,111,0,0,0,0,0,0,0,0,140,28,2,88,27,5,170,0,0,111,10,0,170,0,0,111,6,0,170,0,0,111,10,0,170,0,0,111,6,0,170,0,0,111,6,0,170,0,0,111,6,0,138,30,2,88,30,1,168,2,0,109,7,0,168,2,0,109,7,0,0,168,2,0,110,1,0,168,2,0,110,1,138,30,2,90,28,1,168,2,0,109,7,0,107,44,19,73,34,16
2017-08-13T23:59:59Z,114,174,153,97,174,114,152,96,0,4,0,0,0,0,0,0,5,169,3,111,0,172,0,113,0,0,0,0,0,0,0,0,143,27,4,90,27,7,173,1,0,113,11,1,174,0,0,114,6,1,174,0,0,114,10,1,174,0,0,114,6,1,174,0,0,114,6,1,174,0,0,114,6,1,141,29,4,90,30,3,172,2,0,112,7,1,172,2,0,112,7,1,0,170,4,0,112,3,0,170,4,0,112,3,140,30,4,91,29,3,172,2,0,112,7,1,112,44,18,77,33,15
2017-08-14T23:59:59Z,119,182,158,101,182,119,156,99,0,5,0,0,0,0,0,0,6,176,4,116,0,182,0,119,0,0,0,0,0,0,0,0,147,30,5,92,30,8,182,0,0,119,12,1,182,0,0,119,7,1,182,0,0,119,12,1,182,0,0,119,7,1,182,0,0,119,7,1,182,0,0,119,7,1,146,32,4,93,33,3,179,3,0,116,9,1,179,3,0,116,9,1,0,178,4,0,117,3,0,178,4,0,117,3,146,32,4,96,31,3,180,2,0,117,8,1,117,45,20,81,34,17
2017-08-15T23:59:59Z,118,180,156,100,179,118,152,98,0,5,0,0,0,0,0,0,6,174,4,115,0,180,0,118,0,0,0,0,0,0,0,0,144,32,4,90,32,8,180,0,0,118,12,1,180,0,0,118,7,1,180,0,0,118,12,1,180,0,0,118,7,1,180,0,0,118,7,1,180,0,0,118,7,1,142,34,4,90,35,3,178,2,0,116,8,1,178,2,0,116,8,1,0,176,4,0,116,3,0,176,4,0,116,3,142,34,4,93,33,3,178,2,0,116,8,1,116,44,20,80,34,17
2017-08-16T23:59:59Z,117,176,156,101,176,117,152,98,0,5,0,0,0,0,0,0,1,175,1,116,0,176,0,117,0,0,0,0,0,0,0,0,144,32,0,91,32,6,176,0,0,117,12,1,176,0,0,117,7,1,176,0,0,117,12,1,176,0,0,117,7,1,176,0,0,117,7,1,176,0,0,117,7,1,142,34,0,91,35,1,174,2,0,115,8,1,174,2,0,115,8,1,0,176,0,0,117,1,0,176,0,0,117,1,142,34,0,94,33,1,174,2,0,115,8,1,113,44,19,79,34,17
2017-08-17T23:59:59Z,120,182,159,102,182,120,155,99,0,6,0,0,0,0,0,0,4,178,3,118,0,182,0,120,0,0,0,0,0,0,0,0,146,34,2,91,33,8,181,1,0,119,12,2,181,1,0,119,7,2,182,0,0,120,11,2,182,0,0,120,6,2,182,0,0,120,6,2,182,0,0,120,6,2,144,36,2,91,36,3,178,4,0,116,9,2,178,4,0,116,9,2,0,180,2,0,119,3,0,180,2,0,119,3,144,36,2,94,34,3,179,3,0,117,8,2,117,46,19,81,35,17
2017-08-18T23:59:59Z,116,173,151,99,173,116,147,96,0,5,0,0,0,0,0,0,4,169,3,114,0,173,0,116,0,0,0,0,0,0,0,0,137,33,3,87,32,7,172,1,0,115,12,1,172,1,0,115,7,1,173,0,0,116,11,1,173,0,0,116,6,1,172,1,0,115,7,1,172,1,0,115,7,1,137,34,2,89,34,2,170,3,0,113,8,1,170,3,0,113,8,1,0,171,2,0,115,2,0,171,2,0,115,2,136,35,2,91,33,2,171,2,0,114,7,1,115,41,17,80,32,16
2017-08-19T23:59:59Z,117,176,152,99,176,117,148,96,1,5,0,0,0,0,0,0,5,171,3,114,0,173,0,116,0,0,0,0,0,0,0,0,139,33,4,88,33,7,176,0,0,117,11,1,176,0,0,117,7,1,176,0,0,117,11,1,176,0,0,117,7,1,176,0,0,117,7,1,176,0,0,117,7,1,137,35,4,88,35,3,174,2,0,115,8,1,174,2,0,115,8,1,0,172,4,0,115,3,0,172,4,0,115,3,137,35,4,91,34,3,174,2,0,115,8,1,117,41,18,82,31,15